| time (UTC) | temp F | wind direction | speed MPH | gust MPH | rain 1hr in | rain 24hr in | rain mn in | humidity % | barometer mb |
| 20260505123054 | 62 | 355 | 0.0 | 0.0 | 0.00 | 0.01 | 0.00 | 74 | 1010.1 |
| 20260505122340 | 62 | 355 | 0.0 | 0.0 | 0.00 | 0.01 | 0.00 | 74 | 1010.1 |
| 20260505121828 | 62 | 355 | 0.0 | 0.0 | 0.00 | 0.01 | 0.00 | 74 | 1010.1 |
| 20260505121325 | 62 | 355 | 0.0 | 0.0 | 0.00 | 0.01 | 0.00 | 74 | 1010.0 |
| 20260505121048 | 62 | 355 | 0.0 | 0.0 | 0.00 | 0.01 | 0.00 | 72 | 1010.0 |
| 20260505120545 | 62 | 355 | 0.0 | 0.0 | 0.00 | 0.01 | 0.00 | 72 | 1009.8 |
| 20260505115821 | 62 | 355 | 0.0 | 0.0 | 0.00 | 0.01 | 0.00 | 72 | 1009.8 |
| 20260505115319 | 63 | 355 | 0.0 | 0.0 | 0.00 | 0.02 | 0.00 | 71 | 1009.7 |
| 20260505114817 | 63 | 355 | 0.0 | 0.0 | 0.00 | 0.02 | 0.00 | 70 | 1009.6 |
| 20260505114544 | 63 | 355 | 0.0 | 0.0 | 0.00 | 0.03 | 0.00 | 69 | 1009.5 |
| 20260505114039 | 63 | 355 | 0.0 | 0.0 | 0.00 | 0.03 | 0.00 | 70 | 1009.5 |
| 20260505113325 | 62 | 355 | 0.0 | 0.0 | 0.00 | 0.03 | 0.00 | 70 | 1009.5 |
| 20260505112811 | 62 | 355 | 0.0 | 0.0 | 0.00 | 0.03 | 0.00 | 69 | 1009.5 |
| 20260505112311 | 62 | 355 | 0.0 | 0.0 | 0.00 | 0.04 | 0.00 | 70 | 1009.5 |
| 20260505111811 | 62 | 355 | 0.0 | 0.0 | 0.00 | 0.04 | 0.00 | 71 | 1009.5 |
| 20260505111303 | 63 | 355 | 0.0 | 0.0 | 0.00 | 0.05 | 0.00 | 69 | 1009.4 |
| 20260505110801 | 63 | 355 | 0.0 | 0.0 | 0.00 | 0.05 | 0.00 | 68 | 1009.3 |
| 20260505110305 | 63 | 355 | 0.0 | 0.0 | 0.00 | 0.05 | 0.00 | 67 | 1009.4 |
| 20260505101751 | 64 | 355 | 0.0 | 0.0 | 0.00 | 0.05 | 0.00 | 66 | 1010.0 |
| 20260505101249 | 63 | 9 | 0.0 | 0.0 | 0.00 | 0.05 | 0.00 | 66 | 1010.0 |
| 20260505101025 | 63 | 9 | 0.0 | 0.0 | 0.00 | 0.05 | 0.00 | 65 | 1009.6 |
| 20260505100248 | 63 | 9 | 0.0 | 0.0 | 0.00 | 0.05 | 0.00 | 64 | 1009.3 |
| 20260505095743 | 64 | 9 | 0.0 | 1.0 | 0.00 | 0.05 | 0.00 | 64 | 1009.1 |
| 20260505095242 | 64 | 5 | 0.0 | 1.0 | 0.00 | 0.05 | 0.00 | 64 | 1009.0 |
| 20260505094743 | 63 | 84 | 0.0 | 0.0 | 0.00 | 0.05 | 0.00 | 64 | 1008.7 |
| 20260505093737 | 64 | 84 | 0.0 | 0.0 | 0.00 | 0.05 | 0.00 | 63 | 1008.4 |
| 20260505093238 | 65 | 84 | 0.0 | 0.0 | 0.00 | 0.05 | 0.00 | 61 | 1008.3 |
| 20260505092736 | 65 | 84 | 0.0 | 0.0 | 0.00 | 0.05 | 0.00 | 61 | 1008.3 |
| 20260505092450 | 64 | 84 | 0.0 | 0.0 | 0.00 | 0.05 | 0.00 | 61 | 1008.3 |
| 20260505091733 | 65 | 84 | 0.0 | 1.0 | 0.00 | 0.06 | 0.00 | 61 | 1008.2 |
| 20260505091230 | 65 | 85 | 0.0 | 3.0 | 0.00 | 0.06 | 0.00 | 61 | 1008.3 |
| 20260505090729 | 65 | 42 | 0.0 | 3.0 | 0.00 | 0.06 | 0.00 | 61 | 1008.0 |
| 20260505090228 | 65 | 134 | 0.0 | 0.0 | 0.00 | 0.06 | 0.00 | 60 | 1007.9 |
| 20260505085728 | 65 | 134 | 0.0 | 0.0 | 0.00 | 0.06 | 0.00 | 60 | 1007.9 |
| 20260505085228 | 65 | 143 | 0.0 | 0.0 | 0.00 | 0.06 | 0.00 | 60 | 1007.9 |
| 20260505084951 | 65 | 138 | 0.0 | 0.0 | 0.00 | 0.06 | 0.00 | 60 | 1008.0 |
| 20260505084435 | 65 | 113 | 0.0 | 0.0 | 0.00 | 0.06 | 0.00 | 59 | 1008.1 |
| 20260505083217 | 65 | 107 | 0.0 | 1.0 | 0.00 | 0.06 | 0.00 | 59 | 1008.0 |
| 20260505082713 | 66 | 98 | 0.0 | 1.0 | 0.00 | 0.06 | 0.00 | 59 | 1007.9 |
| 20260505082212 | 66 | 120 | 0.0 | 2.0 | 0.00 | 0.06 | 0.00 | 59 | 1007.9 |
| 20260505081712 | 66 | 120 | 0.0 | 2.0 | 0.00 | 0.06 | 0.00 | 58 | 1007.8 |
| 20260505081207 | 66 | 271 | 0.0 | 1.0 | 0.00 | 0.06 | 0.00 | 59 | 1007.9 |
| 20260505080707 | 66 | 103 | 0.0 | 2.0 | 0.00 | 0.06 | 0.00 | 58 | 1007.8 |
| 20260505080209 | 66 | 99 | 0.0 | 2.0 | 0.00 | 0.06 | 0.00 | 58 | 1007.8 |
| 20260505075705 | 66 | 137 | 0.0 | 1.0 | 0.00 | 0.06 | 0.00 | 57 | 1007.9 |
| 20260505075207 | 67 | 199 | 0.0 | 3.0 | 0.00 | 0.06 | 0.00 | 57 | 1007.8 |
| 20260505074705 | 67 | 200 | 0.0 | 7.0 | 0.00 | 0.06 | 0.00 | 57 | 1007.8 |
| 20260505074421 | 67 | 308 | 0.0 | 7.0 | 0.00 | 0.06 | 0.00 | 57 | 1007.7 |
| 20260505073941 | 67 | 211 | 0.0 | 3.0 | 0.00 | 0.06 | 0.00 | 57 | 1007.7 |
| 20260505073424 | 67 | 160 | 0.0 | 2.0 | 0.00 | 0.06 | 0.00 | 56 | 1007.7 |
| 20260505072702 | 67 | 131 | 0.0 | 4.0 | 0.00 | 0.06 | 0.00 | 56 | 1007.6 |
| 20260505072204 | 67 | 118 | 0.0 | 4.0 | 0.00 | 0.06 | 0.00 | 56 | 1007.5 |
| 20260505071659 | 67 | 185 | 0.0 | 4.0 | 0.00 | 0.06 | 0.00 | 56 | 1007.6 |
| 20260505071158 | 67 | 124 | 0.0 | 4.0 | 0.00 | 0.06 | 0.00 | 56 | 1007.5 |
| 20260505070658 | 67 | 142 | 0.0 | 3.0 | 0.00 | 0.06 | 0.00 | 56 | 1007.4 |
| 20260505070156 | 67 | 92 | 0.0 | 2.0 | 0.00 | 0.06 | 0.00 | 56 | 1007.5 |
| 20260505065656 | 67 | 121 | 0.0 | 2.0 | 0.00 | 0.06 | 0.00 | 56 | 1007.4 |
| 20260505065157 | 67 | 128 | 0.0 | 2.0 | 0.00 | 0.06 | 0.00 | 56 | 1007.4 |
| 20260505064653 | 68 | 109 | 0.0 | 2.0 | 0.00 | 0.06 | 0.00 | 55 | 1007.4 |
| 20260505064155 | 68 | 127 | 0.0 | 6.0 | 0.00 | 0.06 | 0.00 | 55 | 1007.4 |
| 20260505063654 | 68 | 159 | 0.0 | 6.0 | 0.00 | 0.06 | 0.00 | 55 | 1007.4 |
| 20260505063147 | 68 | 138 | 0.0 | 3.0 | 0.00 | 0.06 | 0.00 | 55 | 1007.4 |
| 20260505062914 | 68 | 234 | 0.0 | 3.0 | 0.00 | 0.06 | 0.00 | 55 | 1007.3 |
| 20260505062148 | 68 | 118 | 0.0 | 2.0 | 0.00 | 0.06 | 0.00 | 55 | 1007.3 |
| 20260505061641 | 68 | 82 | 0.0 | 2.0 | 0.00 | 0.06 | 0.00 | 55 | 1007.3 |
| 20260505061140 | 68 | 96 | 0.0 | 2.0 | 0.00 | 0.06 | 0.00 | 55 | 1007.3 |
| 20260505060641 | 68 | 230 | 0.0 | 2.0 | 0.00 | 0.06 | 0.00 | 55 | 1007.3 |
| 20260505060135 | 68 | 152 | 0.0 | 2.0 | 0.00 | 0.06 | 0.00 | 54 | 1007.3 |
| 20260505055633 | 68 | 180 | 0.0 | 2.0 | 0.00 | 0.06 | 0.00 | 54 | 1007.2 |
| 20260505055136 | 68 | 140 | 0.0 | 5.0 | 0.00 | 0.06 | 0.00 | 54 | 1007.2 |
| 20260505054633 | 68 | 161 | 0.0 | 5.0 | 0.00 | 0.06 | 0.00 | 54 | 1007.2 |
| 20260505054403 | 68 | 146 | 0.0 | 5.0 | 0.00 | 0.06 | 0.00 | 54 | 1007.3 |
| 20260505053633 | 68 | 240 | 0.0 | 5.0 | 0.00 | 0.06 | 0.00 | 54 | 1007.3 |
| 20260505053127 | 68 | 140 | 0.0 | 4.0 | 0.00 | 0.06 | 0.00 | 54 | 1007.3 |
| 20260505052625 | 68 | 286 | 0.0 | 4.0 | 0.00 | 0.06 | 0.00 | 54 | 1007.3 |
| 20260505052140 | 68 | 112 | 0.0 | 3.0 | 0.00 | 0.06 | 0.00 | 54 | 1007.2 |
| 20260505051621 | 68 | 152 | 0.0 | 3.0 | 0.00 | 0.06 | 0.00 | 54 | 1007.2 |
| 20260505051123 | 68 | 117 | 0.0 | 2.0 | 0.00 | 0.06 | 0.00 | 54 | 1007.3 |
| 20260505050624 | 69 | 112 | 0.0 | 1.0 | 0.00 | 0.06 | 0.00 | 54 | 1007.4 |
| 20260505050123 | 69 | 124 | 0.0 | 1.0 | 0.00 | 0.06 | 0.00 | 54 | 1007.5 |
| 20260505041608 | 69 | 103 | 0.0 | 0.0 | 0.00 | 0.06 | 0.00 | 54 | 1007.6 |
| 20260505041103 | 69 | 103 | 0.0 | 0.0 | 0.00 | 0.06 | 0.00 | 53 | 1007.6 |
| 20260505040603 | 69 | 103 | 0.0 | 0.0 | 0.00 | 0.06 | 0.00 | 53 | 1007.6 |
| 20260505040117 | 69 | 103 | 0.0 | 0.0 | 0.00 | 0.06 | 0.00 | 53 | 1007.6 |
| 20260505035602 | 69 | 103 | 0.0 | 0.0 | 0.00 | 0.06 | 0.06 | 53 | 1007.7 |
| 20260505035102 | 69 | 103 | 0.0 | 0.0 | 0.00 | 0.06 | 0.06 | 53 | 1007.7 |
| 20260505034603 | 70 | 103 | 0.0 | 1.0 | 0.00 | 0.06 | 0.06 | 52 | 1007.7 |
| 20260505034101 | 70 | 103 | 0.0 | 1.0 | 0.00 | 0.06 | 0.06 | 52 | 1007.7 |
| 20260505033102 | 70 | 103 | 0.0 | 1.0 | 0.00 | 0.06 | 0.06 | 52 | 1007.6 |
| 20260505032553 | 70 | 102 | 0.0 | 1.0 | 0.00 | 0.06 | 0.06 | 51 | 1007.5 |
| 20260505032319 | 70 | 102 | 0.0 | 1.0 | 0.00 | 0.06 | 0.06 | 52 | 1007.5 |
| 20260505031827 | 70 | 245 | 0.0 | 0.0 | 0.00 | 0.06 | 0.06 | 52 | 1007.5 |
| 20260505031047 | 70 | 245 | 0.0 | 0.0 | 0.00 | 0.06 | 0.06 | 52 | 1007.4 |
| 20260505030546 | 70 | 245 | 0.0 | 0.0 | 0.00 | 0.06 | 0.06 | 52 | 1007.4 |
| 20260505030106 | 70 | 245 | 0.0 | 1.0 | 0.00 | 0.06 | 0.06 | 52 | 1007.3 |
| 20260505025545 | 70 | 245 | 0.0 | 1.0 | 0.00 | 0.06 | 0.06 | 52 | 1007.1 |
| 20260505025041 | 70 | 245 | 0.0 | 1.0 | 0.00 | 0.06 | 0.06 | 52 | 1007.1 |
| 20260505024546 | 70 | 219 | 0.0 | 2.0 | 0.00 | 0.06 | 0.06 | 52 | 1007.0 |
| 20260505024037 | 70 | 219 | 0.0 | 2.0 | 0.00 | 0.06 | 0.06 | 53 | 1006.9 |
| 20260505023535 | 70 | 258 | 0.0 | 1.0 | 0.00 | 0.06 | 0.06 | 53 | 1006.9 |
| 20260505023039 | 69 | 258 | 0.0 | 1.0 | 0.00 | 0.06 | 0.06 | 54 | 1006.8 |
| 20260505022535 | 69 | 258 | 0.0 | 1.0 | 0.00 | 0.06 | 0.06 | 54 | 1006.8 |
| 20260505022034 | 70 | 258 | 0.0 | 1.0 | 0.00 | 0.06 | 0.06 | 52 | 1006.7 |
| 20260505021535 | 71 | 258 | 0.0 | 1.0 | 0.00 | 0.06 | 0.06 | 51 | 1006.5 |
| 20260505021300 | 71 | 261 | 0.0 | 1.0 | 0.00 | 0.06 | 0.06 | 50 | 1006.4 |
| 20260505020538 | 72 | 261 | 0.0 | 2.0 | 0.00 | 0.06 | 0.06 | 49 | 1006.4 |
| 20260505020250 | 72 | 261 | 0.0 | 2.0 | 0.00 | 0.06 | 0.06 | 49 | 1006.3 |
| 20260505015526 | 72 | 83 | 0.0 | 2.0 | 0.00 | 0.06 | 0.06 | 48 | 1006.1 |
| 20260505015027 | 72 | 83 | 0.0 | 2.0 | 0.00 | 0.06 | 0.06 | 48 | 1005.9 |
| 20260505014741 | 73 | 202 | 0.0 | 1.0 | 0.00 | 0.06 | 0.06 | 48 | 1005.8 |
| 20260505014019 | 73 | 106 | 0.0 | 2.0 | 0.00 | 0.06 | 0.06 | 48 | 1005.8 |
| 20260505013518 | 73 | 106 | 0.0 | 2.0 | 0.00 | 0.06 | 0.06 | 48 | 1005.6 |
| 20260505013018 | 73 | 153 | 0.0 | 1.0 | 0.00 | 0.06 | 0.06 | 47 | 1005.6 |
| 20260505012520 | 73 | 138 | 0.0 | 2.0 | 0.00 | 0.06 | 0.06 | 47 | 1005.6 |
| 20260505012018 | 73 | 139 | 0.0 | 2.0 | 0.00 | 0.06 | 0.06 | 47 | 1005.5 |
| 20260505011521 | 73 | 130 | 0.0 | 2.0 | 0.00 | 0.06 | 0.06 | 47 | 1005.6 |
| 20260505011235 | 74 | 130 | 0.0 | 3.0 | 0.00 | 0.06 | 0.06 | 46 | 1005.7 |
| 20260505010508 | 74 | 238 | 0.0 | 3.0 | 0.00 | 0.06 | 0.06 | 46 | 1005.7 |
| 20260505010011 | 74 | 111 | 0.0 | 1.0 | 0.00 | 0.06 | 0.06 | 45 | 1005.6 |
| 20260505005508 | 74 | 109 | 0.0 | 1.0 | 0.00 | 0.06 | 0.06 | 45 | 1005.4 |
| 20260505005009 | 74 | 109 | 0.0 | 1.0 | 0.00 | 0.06 | 0.06 | 44 | 1005.6 |
| 20260505004728 | 75 | 109 | 0.0 | 1.0 | 0.00 | 0.06 | 0.06 | 44 | 1005.6 |
| 20260505004001 | 75 | 258 | 0.0 | 2.0 | 0.00 | 0.06 | 0.06 | 44 | 1005.6 |
| 20260505003459 | 75 | 266 | 1.0 | 4.0 | 0.00 | 0.06 | 0.06 | 44 | 1005.4 |
| 20260505002956 | 75 | 235 | 0.0 | 4.0 | 0.00 | 0.06 | 0.06 | 45 | 1005.3 |
| 20260505002455 | 75 | 265 | 0.0 | 2.0 | 0.00 | 0.06 | 0.06 | 45 | 1005.3 |
| 20260505001955 | 75 | 163 | 0.0 | 4.0 | 0.00 | 0.06 | 0.06 | 45 | 1005.3 |
| 20260505001454 | 75 | 163 | 0.0 | 4.0 | 0.00 | 0.06 | 0.06 | 45 | 1005.4 |
| 20260505000955 | 75 | 165 | 1.0 | 4.0 | 0.00 | 0.06 | 0.06 | 45 | 1005.5 |
| 20260505000454 | 75 | 210 | 1.0 | 4.0 | 0.00 | 0.06 | 0.06 | 45 | 1005.6 |
| 20260504235955 | 75 | 224 | 1.0 | 2.0 | 0.00 | 0.06 | 0.06 | 46 | 1005.5 |
| 20260504234955 | 76 | 160 | 1.0 | 4.0 | 0.00 | 0.06 | 0.06 | 45 | 1005.6 |
| 20260504234450 | 76 | 149 | 0.0 | 2.0 | 0.00 | 0.06 | 0.06 | 45 | 1005.6 |
| 20260504233950 | 76 | 138 | 0.0 | 4.0 | 0.00 | 0.06 | 0.06 | 45 | 1005.8 |
| 20260504233447 | 76 | 156 | 0.0 | 4.0 | 0.00 | 0.06 | 0.06 | 44 | 1005.9 |
| 20260504232945 | 76 | 209 | 0.0 | 1.0 | 0.00 | 0.06 | 0.06 | 44 | 1006.1 |
| 20260504232448 | 77 | 215 | 0.0 | 6.0 | 0.00 | 0.06 | 0.06 | 44 | 1006.3 |
| 20260504231945 | 77 | 215 | 0.0 | 6.0 | 0.00 | 0.06 | 0.06 | 44 | 1006.3 |
| 20260504231446 | 77 | 151 | 0.0 | 2.0 | 0.00 | 0.06 | 0.06 | 44 | 1006.6 |
| 20260504230945 | 77 | 319 | 0.0 | 2.0 | 0.00 | 0.06 | 0.06 | 44 | 1006.7 |
| 20260504230459 | 77 | 273 | 0.0 | 3.0 | 0.00 | 0.06 | 0.06 | 44 | 1006.8 |
| 20260504225944 | 77 | 294 | 0.0 | 3.0 | 0.00 | 0.06 | 0.06 | 44 | 1006.9 |
| 20260504225443 | 77 | 175 | 0.0 | 3.0 | 0.00 | 0.06 | 0.06 | 44 | 1006.9 |
| 20260504224942 | 77 | 94 | 1.0 | 3.0 | 0.00 | 0.06 | 0.06 | 44 | 1006.9 |
| 20260504224707 | 77 | 130 | 1.0 | 6.0 | 0.00 | 0.06 | 0.06 | 43 | 1007.0 |
| 20260504223942 | 78 | 307 | 1.0 | 6.0 | 0.00 | 0.06 | 0.06 | 43 | 1007.1 |
| 20260504223435 | 78 | 245 | 1.0 | 7.0 | 0.00 | 0.06 | 0.06 | 43 | 1007.1 |
| 20260504222936 | 78 | 275 | 1.0 | 7.0 | 0.00 | 0.06 | 0.06 | 43 | 1007.2 |
| 20260504222437 | 78 | 260 | 0.0 | 4.0 | 0.00 | 0.06 | 0.06 | 44 | 1007.3 |
| 20260504221937 | 78 | 286 | 0.0 | 3.0 | 0.00 | 0.06 | 0.06 | 43 | 1007.4 |
| 20260504221710 | 78 | 214 | 0.0 | 3.0 | 0.00 | 0.06 | 0.06 | 44 | 1007.3 |
| 20260504220936 | 78 | 5 | 1.0 | 7.0 | 0.00 | 0.06 | 0.06 | 45 | 1007.4 |
| 20260504220435 | 79 | 286 | 1.0 | 7.0 | 0.00 | 0.06 | 0.06 | 43 | 1007.4 |
| 20260504215933 | 80 | 321 | 1.0 | 6.0 | 0.00 | 0.06 | 0.06 | 43 | 1007.4 |
| 20260504215434 | 80 | 239 | 2.0 | 7.0 | 0.00 | 0.06 | 0.06 | 43 | 1007.4 |
| 20260504214933 | 79 | 152 | 2.0 | 7.0 | 0.00 | 0.06 | 0.06 | 43 | 1007.3 |
| 20260504214427 | 79 | 150 | 1.0 | 5.0 | 0.00 | 0.06 | 0.06 | 43 | 1007.3 |
| 20260504213925 | 81 | 161 | 2.0 | 7.0 | 0.00 | 0.06 | 0.06 | 43 | 1007.3 |
| 20260504213424 | 80 | 199 | 2.0 | 7.0 | 0.00 | 0.06 | 0.06 | 42 | 1007.3 |
| 20260504212917 | 81 | 152 | 1.0 | 6.0 | 0.00 | 0.06 | 0.06 | 43 | 1007.3 |
| 20260504212419 | 80 | 198 | 1.0 | 6.0 | 0.00 | 0.06 | 0.06 | 43 | 1007.4 |
| 20260504211918 | 81 | 155 | 1.0 | 8.0 | 0.00 | 0.06 | 0.06 | 44 | 1007.5 |
| 20260504211418 | 81 | 94 | 1.0 | 8.0 | 0.00 | 0.06 | 0.06 | 43 | 1007.5 |
| 20260504210918 | 81 | 205 | 2.0 | 11.0 | 0.00 | 0.06 | 0.06 | 45 | 1007.5 |
| 20260504210414 | 80 | 271 | 2.0 | 11.0 | 0.00 | 0.06 | 0.06 | 44 | 1007.5 |
| 20260504205915 | 81 | 143 | 1.0 | 6.0 | 0.00 | 0.06 | 0.06 | 45 | 1007.5 |
| 20260504205414 | 80 | 221 | 1.0 | 6.0 | 0.00 | 0.06 | 0.06 | 46 | 1007.5 |
| 20260504204909 | 80 | 227 | 2.0 | 5.0 | 0.00 | 0.06 | 0.06 | 45 | 1007.5 |
| 20260504203908 | 80 | 107 | 1.0 | 6.0 | 0.00 | 0.06 | 0.06 | 45 | 1007.6 |
| 20260504203402 | 80 | 153 | 2.0 | 9.0 | 0.00 | 0.06 | 0.06 | 45 | 1007.6 |
| 20260504202900 | 80 | 162 | 2.0 | 10.0 | 0.00 | 0.06 | 0.06 | 43 | 1007.6 |
| 20260504202359 | 79 | 159 | 1.0 | 10.0 | 0.00 | 0.06 | 0.06 | 45 | 1007.6 |
| 20260504201900 | 79 | 231 | 1.0 | 13.0 | 0.00 | 0.06 | 0.06 | 45 | 1007.6 |
| 20260504201403 | 80 | 96 | 1.0 | 13.0 | 0.00 | 0.06 | 0.06 | 45 | 1007.7 |
| 20260504200356 | 80 | 42 | 1.0 | 6.0 | 0.00 | 0.06 | 0.06 | 44 | 1007.9 |
| 20260504195857 | 80 | 228 | 1.0 | 8.0 | 0.00 | 0.06 | 0.06 | 45 | 1007.9 |
| 20260504195355 | 80 | 232 | 2.0 | 8.0 | 0.00 | 0.06 | 0.06 | 44 | 1008.0 |
| 20260504194854 | 81 | 184 | 1.0 | 5.0 | 0.00 | 0.06 | 0.06 | 41 | 1008.1 |
| 20260504194355 | 81 | 343 | 1.0 | 7.0 | 0.00 | 0.06 | 0.06 | 47 | 1008.1 |
| 20260504193857 | 80 | 101 | 1.0 | 7.0 | 0.00 | 0.06 | 0.06 | 43 | 1008.1 |
| 20260504193355 | 80 | 103 | 1.0 | 6.0 | 0.00 | 0.06 | 0.06 | 43 | 1008.2 |
| 20260504192853 | 80 | 178 | 1.0 | 7.0 | 0.00 | 0.06 | 0.06 | 43 | 1008.3 |
| 20260504192614 | 80 | 265 | 1.0 | 8.0 | 0.00 | 0.06 | 0.06 | 42 | 1008.3 |
| 20260504192119 | 80 | 225 | 1.0 | 8.0 | 0.00 | 0.06 | 0.06 | 44 | 1008.5 |
| 20260504191351 | 79 | 212 | 1.0 | 5.0 | 0.00 | 0.06 | 0.06 | 43 | 1008.5 |
| 20260504190850 | 79 | 193 | 1.0 | 6.0 | 0.00 | 0.06 | 0.06 | 43 | 1008.6 |
| 20260504190349 | 79 | 123 | 1.0 | 8.0 | 0.00 | 0.06 | 0.06 | 44 | 1008.7 |
| 20260504185849 | 80 | 15 | 1.0 | 8.0 | 0.00 | 0.06 | 0.06 | 45 | 1008.9 |
| 20260504185352 | 80 | 211 | 1.0 | 6.0 | 0.00 | 0.06 | 0.06 | 44 | 1008.8 |
| 20260504184849 | 79 | 177 | 1.0 | 9.0 | 0.00 | 0.06 | 0.06 | 45 | 1008.9 |
| 20260504184349 | 79 | 321 | 1.0 | 9.0 | 0.00 | 0.06 | 0.06 | 45 | 1008.9 |
| 20260504184118 | 79 | 254 | 1.0 | 8.0 | 0.00 | 0.06 | 0.06 | 45 | 1009.0 |
| 20260504183350 | 78 | 155 | 2.0 | 10.0 | 0.00 | 0.06 | 0.06 | 47 | 1008.9 |
| 20260504182846 | 78 | 313 | 2.0 | 10.0 | 0.00 | 0.06 | 0.06 | 45 | 1008.9 |
| 20260504182344 | 78 | 319 | 1.0 | 7.0 | 0.00 | 0.06 | 0.06 | 47 | 1009.0 |
| 20260504182109 | 78 | 244 | 1.0 | 9.0 | 0.00 | 0.06 | 0.06 | 46 | 1008.9 |
| 20260504181342 | 78 | 284 | 1.0 | 9.0 | 0.00 | 0.06 | 0.06 | 46 | 1009.0 |
| 20260504180843 | 78 | 325 | 2.0 | 8.0 | 0.00 | 0.06 | 0.06 | 47 | 1009.0 |
| 20260504180339 | 78 | 268 | 1.0 | 8.0 | 0.00 | 0.06 | 0.06 | 48 | 1009.1 |
| 20260504175841 | 78 | 169 | 1.0 | 8.0 | 0.00 | 0.06 | 0.06 | 46 | 1009.0 |
| 20260504175603 | 78 | 150 | 1.0 | 6.0 | 0.00 | 0.06 | 0.06 | 49 | 1009.0 |
| 20260504174841 | 78 | 335 | 1.0 | 5.0 | 0.00 | 0.06 | 0.06 | 53 | 1008.9 |
| 20260504174611 | 77 | 242 | 2.0 | 7.0 | 0.00 | 0.06 | 0.06 | 50 | 1009.0 |
| 20260504174105 | 76 | 130 | 2.0 | 7.0 | 0.00 | 0.06 | 0.06 | 50 | 1008.9 |
| 20260504173335 | 76 | 163 | 1.0 | 8.0 | 0.00 | 0.06 | 0.06 | 50 | 1008.9 |
| 20260504172835 | 76 | 99 | 1.0 | 8.0 | 0.00 | 0.06 | 0.06 | 49 | 1008.9 |
| 20260504172337 | 76 | 197 | 1.0 | 7.0 | 0.00 | 0.06 | 0.06 | 50 | 1009.0 |
| 20260504171831 | 76 | 19 | 1.0 | 8.0 | 0.00 | 0.06 | 0.06 | 52 | 1009.1 |
| 20260504171330 | 75 | 201 | 1.0 | 8.0 | 0.00 | 0.06 | 0.06 | 50 | 1009.0 |
| 20260504170828 | 75 | 196 | 1.0 | 4.0 | 0.00 | 0.06 | 0.06 | 49 | 1009.0 |
| 20260504170326 | 76 | 298 | 1.0 | 8.0 | 0.00 | 0.06 | 0.06 | 51 | 1009.1 |
| 20260504160313 | 72 | 0 | 0.0 | 3.0 | 0.00 | 0.06 | 0.06 | 55 | 1009.6 |
| 20260504150801 | 67 | 180 | 0.0 | 6.0 | 0.00 | 0.06 | 0.06 | 61 | 1010.1 |
| 20260504150303 | 66 | 200 | 0.0 | 4.0 | 0.00 | 0.06 | 0.06 | 62 | 1010.3 |
| 20260504141246 | 61 | 219 | 0.0 | 3.0 | 0.00 | 0.06 | 0.06 | 71 | 1010.5 |
| 20260504140745 | 60 | 225 | 0.0 | 1.0 | 0.00 | 0.06 | 0.06 | 72 | 1010.6 |
| 20260504140510 | 59 | 234 | 0.0 | 0.0 | 0.00 | 0.06 | 0.06 | 74 | 1010.7 |
| 20260504130733 | 54 | 254 | 0.0 | 0.0 | 0.01 | 0.06 | 0.06 | 84 | 1011.4 |
| 20260504130232 | 54 | 254 | 0.0 | 0.0 | 0.01 | 0.06 | 0.06 | 85 | 1011.4 |